| time (UTC) | temp F | wind direction | speed knots | gust knots | rain 1hr in | rain 24hr in | rain mn in | humidity % | barometer mb |
| 20260505034556 | 61 | 158 | 0.9 | 2.6 | 0.00 | 0.01 | 0.01 | 73 | 1010.5 |
| 20260505033057 | 61 | 203 | 0.9 | 3.5 | 0.00 | 0.01 | 0.01 | 71 | 1010.5 |
| 20260505031559 | 61 | 205 | 0.9 | 2.6 | 0.00 | 0.01 | 0.01 | 73 | 1010.3 |
| 20260505024557 | 64 | 184 | 0.9 | 3.5 | 0.00 | 0.01 | 0.01 | 68 | 1010.2 |
| 20260505023058 | 65 | 200 | 0.9 | 4.3 | 0.00 | 0.01 | 0.01 | 64 | 1010.3 |
| 20260505021558 | 66 | 0 | 0.0 | 2.6 | 0.00 | 0.01 | 0.01 | 62 | 1010.2 |
| 20260505020105 | 66 | 161 | 0.9 | 5.2 | 0.00 | 0.01 | 0.01 | 62 | 1010.1 |
| 20260505014558 | 65 | 205 | 0.9 | 3.5 | 0.00 | 0.01 | 0.01 | 65 | 1010.0 |
| 20260505013105 | 66 | 186 | 1.7 | 3.5 | 0.00 | 0.01 | 0.01 | 64 | 1010.1 |
| 20260505011555 | 67 | 0 | 0.0 | 3.5 | 0.00 | 0.01 | 0.01 | 61 | 1010.1 |
| 20260505010112 | 69 | 226 | 0.9 | 3.5 | 0.00 | 0.01 | 0.01 | 58 | 1010.1 |
| 20260505004559 | 70 | 209 | 0.9 | 2.6 | 0.00 | 0.01 | 0.01 | 54 | 1010.0 |
| 20260505003058 | 72 | 172 | 0.0 | 6.1 | 0.00 | 0.01 | 0.01 | 51 | 1009.9 |
| 20260505001604 | 73 | 0 | 0.9 | 3.5 | 0.00 | 0.01 | 0.01 | 49 | 1009.9 |
| 20260504234557 | 75 | 191 | 0.9 | 7.0 | 0.00 | 0.01 | 0.01 | 45 | 1009.9 |
| 20260504233108 | 75 | 171 | 2.6 | 6.1 | 0.00 | 0.01 | 0.01 | 44 | 1010.0 |
| 20260504231604 | 76 | 184 | 3.5 | 10.4 | 0.00 | 0.01 | 0.01 | 43 | 1009.8 |
| 20260504230059 | 76 | 236 | 3.5 | 13.9 | 0.00 | 0.01 | 0.01 | 42 | 1009.8 |
| 20260504224555 | 77 | 159 | 2.6 | 12.2 | 0.00 | 0.01 | 0.01 | 41 | 1009.9 |
| 20260504223059 | 77 | 205 | 4.3 | 8.7 | 0.00 | 0.01 | 0.01 | 42 | 1010.0 |
| 20260504221559 | 77 | 237 | 2.6 | 10.4 | 0.00 | 0.01 | 0.01 | 42 | 1010.1 |
| 20260504220057 | 77 | 242 | 1.7 | 6.1 | 0.00 | 0.01 | 0.01 | 44 | 1010.0 |
| 20260504214558 | 77 | 190 | 2.6 | 11.3 | 0.00 | 0.01 | 0.01 | 43 | 1010.1 |
| 20260504213055 | 77 | 333 | 3.5 | 12.2 | 0.00 | 0.01 | 0.01 | 42 | 1010.2 |
| 20260504211557 | 77 | 154 | 7.0 | 13.9 | 0.00 | 0.01 | 0.01 | 42 | 1010.1 |
| 20260504210107 | 77 | 223 | 3.5 | 12.2 | 0.00 | 0.01 | 0.01 | 44 | 1010.3 |
| 20260504204614 | 76 | 210 | 6.1 | 16.5 | 0.00 | 0.01 | 0.01 | 44 | 1010.4 |
| 20260504203109 | 76 | 155 | 4.3 | 13.9 | 0.00 | 0.01 | 0.01 | 48 | 1010.5 |
| 20260504201557 | 75 | 189 | 3.5 | 9.6 | 0.00 | 0.01 | 0.01 | 52 | 1010.7 |
| 20260504200057 | 74 | 150 | 4.3 | 12.2 | 0.00 | 0.01 | 0.01 | 53 | 1011.2 |
| 20260504194602 | 73 | 210 | 5.2 | 13.9 | 0.00 | 0.01 | 0.01 | 54 | 1011.4 |
| 20260504193057 | 72 | 219 | 4.3 | 11.3 | 0.00 | 0.01 | 0.01 | 56 | 1011.8 |
| 20260504191558 | 70 | 171 | 3.5 | 8.7 | 0.01 | 0.01 | 0.01 | 60 | 1011.8 |
| 20260504190128 | 68 | 169 | 3.5 | 8.7 | 0.01 | 0.01 | 0.01 | 62 | 1012.0 |
| 20260504184555 | 67 | 159 | 3.5 | 9.6 | 0.01 | 0.01 | 0.01 | 66 | 1012.6 |
| 20260504183100 | 65 | 166 | 0.9 | 8.7 | 0.01 | 0.01 | 0.01 | 68 | 1013.1 |
| 20260504181558 | 67 | 255 | 2.6 | 11.3 | 0.00 | 0.00 | 0.00 | 58 | 1013.3 |
| 20260504180057 | 69 | 217 | 5.2 | 12.2 | 0.00 | 0.00 | 0.00 | 52 | 1012.8 |
| 20260504174600 | 69 | 190 | 9.6 | 20.0 | 0.00 | 0.00 | 0.00 | 51 | 1012.5 |
| 20260504173059 | 69 | 205 | 7.0 | 16.5 | 0.00 | 0.00 | 0.00 | 53 | 1012.6 |
| 20260504171557 | 69 | 180 | 6.1 | 15.6 | 0.00 | 0.00 | 0.00 | 54 | 1012.3 |
| 20260504081604 | 46 | 185 | 0.9 | 2.6 | 0.00 | 0.00 | 0.00 | 82 | 1015.0 |
| 20260504060126 | 48 | 166 | 0.0 | 3.5 | 0.00 | 0.00 | 0.00 | 79 | 1016.1 |
| 20260504050115 | 49 | 0 | 0.9 | 3.5 | 0.00 | 0.00 | 0.00 | 79 | 1016.8 |
| 20260504044559 | 49 | 219 | 0.9 | 2.6 | 0.00 | 0.00 | 0.00 | 79 | 1016.9 |
| 20260504043108 | 49 | 227 | 0.9 | 2.6 | 0.00 | 0.00 | 0.00 | 78 | 1016.9 |
| 20260504041557 | 49 | 173 | 0.9 | 2.6 | 0.00 | 0.00 | 0.00 | 77 | 1017.0 |
| 20260504040100 | 50 | 251 | 0.0 | 2.6 | 0.00 | 0.00 | 0.00 | 78 | 1016.9 |